Location: Courçay
(47.2523°N, 0.8761°E)
Time: 02:23:22
(UTC+00:00)

Cosmos 1763 Rocket - Pass Details

Date: 18 November 2025
Orbit: 728 x 774 km, 74.0° (Epoch: 04 December)

Event Time Altitude Azimuth Distance (km) Brightness Sun altitude
Rises 16:45:25 0° 341° (NNW) 3,241 6.7 -5.1°
Reaches altitude 10° 16:47:54 10° 347° (NNW) 2,304 5.9 -5.4°
Maximum altitude 16:52:58 49° 62° (ENE) 971 3.7 -6.2°
Drops below altitude 10° 16:57:56 10° 137° (SE) 2,260 5.7 -7.0°
Sets 17:00:20 0° 143° (SE) 3,172 6.5 -7.4°
